{"data":{"norad_id":62145,"epoch":"2026-09-21T08:33:59.531328Z","epoch_age_seconds":108196,"freshness":"FRESH","line1":"1 62145U 24224G   26264.35693902  .00010783  00000+0  40078-3 0  9999","line2":"2 62145  43.0049 133.1785 0002504 265.2065  94.8500 15.27581395102404","mean_motion":15.27581395,"eccentricity":0.0002504,"inclination_deg":43.0049,"raan_deg":133.1785,"arg_perigee_deg":265.2065,"mean_anomaly_deg":94.85,"bstar":0.00040078,"rev_number":10240,"period_min":94.266662628475,"perigee_km":481.32687895849,"apogee_km":484.76295886348,"semimajor_km":6861.181918911,"source":"CELESTRAK","updated_at":"2026-09-22T09:00:49.530226Z"}}